period_start,C,m1,H,J0,J1,J2,J3,J4,J5,JA,JB,JC,JD,JJ,JK,JN,#
2017-03-27 00:04:50,0.19,11.53,0.00,24.35,27.65,31.10,14.26,51.38,1000.08,2023.98,1094.85,1345.02,1533.19,599.72,583.49,35.57,0000 0000 0000 0000 000000
2017-03-27 00:09:52,0.22,11.54,0.00,24.29,27.65,31.11,14.23,51.48,1000.01,2023.99,1093.92,1344.31,1532.46,600.06,583.77,35.62,0000 0000 0000 0000 000000
2017-03-27 00:14:54,0.13,11.55,0.00,24.24,27.63,31.08,14.32,51.58,999.98,2023.99,1092.99,1343.87,1531.80,600.41,584.32,35.67,0000 0000 0000 0000 000000
2017-03-27 00:19:55,0.23,11.56,0.00,24.26,27.62,31.07,14.14,51.75,999.61,2023.99,1091.98,1343.07,1530.92,599.96,583.61,35.72,0000 0000 0000 0000 000000
2017-03-27 00:24:57,0.23,11.57,0.00,24.25,27.62,31.13,14.30,52.00,999.53,2023.99,1090.83,1342.65,1529.99,599.93,583.49,35.77,0000 0000 0000 0000 000000
2017-03-27 00:29:58,0.19,11.59,0.00,24.37,27.62,31.13,14.30,52.13,999.53,2023.99,1089.77,1341.98,1529.16,600.16,583.49,35.82,0000 0000 0000 0000 000000
2017-03-27 00:34:59,0.21,11.60,0.00,24.57,27.62,30.97,14.23,52.00,999.49,2023.99,1088.88,1341.16,1528.26,600.00,582.89,35.87,0000 0000 0000 0000 000000
2017-03-27 00:40:00,0.22,11.61,0.00,24.42,27.62,30.96,14.29,51.83,999.36,2023.99,1087.85,1340.51,1527.48,600.19,583.33,35.93,0000 0000 0000 0000 000000
2017-03-27 00:45:02,0.15,11.62,0.00,24.36,27.64,31.03,14.28,51.73,999.11,2023.99,1086.95,1339.97,1526.68,599.99,583.09,35.98,0000 0000 0000 0000 000000
2017-03-27 00:50:03,0.21,11.63,0.00,24.16,27.64,31.18,14.27,51.89,999.14,2023.99,1086.00,1339.16,1525.93,599.73,583.24,36.03,0000 0000 0000 0000 000000
2017-03-27 00:55:05,0.23,11.64,0.00,24.06,27.63,31.20,14.28,52.00,999.06,2023.99,1084.96,1338.58,1525.06,599.90,583.62,36.08,0000 0000 0000 0000 000000
2017-03-27 01:00:06,0.17,11.65,0.00,23.97,27.62,31.10,14.29,51.82,999.04,2023.99,1083.88,1337.96,1524.17,600.36,584.18,36.13,0000 0000 0000 0000 000000
2017-03-27 01:05:07,0.28,11.66,0.00,23.96,27.62,31.06,14.29,52.02,999.04,2023.99,1082.70,1337.15,1523.34,600.07,583.92,36.18,0000 0000 0000 0000 000000
2017-03-27 01:10:08,0.22,11.67,0.00,23.95,27.60,31.10,14.28,52.10,998.87,2023.99,1081.69,1336.53,1522.42,599.66,583.39,36.23,0000 0000 0000 0000 000000
2017-03-27 01:15:09,0.18,11.68,0.00,23.86,27.60,31.07,14.28,52.02,998.59,2024.00,1080.61,1335.94,1521.64,600.05,583.80,36.28,0000 0000 0000 0000 000000
2017-03-27 01:20:11,0.23,11.69,0.00,23.81,27.58,31.04,14.35,52.19,998.55,2024.02,1079.57,1335.12,1520.80,600.12,583.99,36.33,0000 0000 0000 0000 000000
2017-03-27 01:25:12,0.20,11.70,0.00,23.81,27.57,31.02,14.37,52.26,998.53,2024.02,1078.57,1334.54,1519.99,600.22,584.09,36.38,0000 0000 0000 0000 000000
2017-03-27 01:30:13,0.20,11.71,0.00,23.79,27.56,31.02,14.30,52.24,998.51,2024.01,1077.56,1333.84,1519.07,599.84,583.67,36.43,0000 0000 0000 0000 000000
2017-03-27 01:35:14,0.23,11.73,0.00,23.75,27.55,31.07,14.39,52.17,998.55,2024.02,1076.41,1333.07,1518.16,600.59,584.35,36.48,0000 0000 0000 0000 000000
2017-03-27 01:40:15,0.22,11.73,0.00,23.78,27.55,31.05,14.32,52.08,998.52,2024.04,1075.58,1332.48,1517.41,599.77,583.60,36.53,0000 0000 0000 0000 000000
2017-03-27 01:45:17,0.18,11.74,0.00,23.76,27.54,31.04,14.34,52.07,998.55,2024.08,1074.49,1331.95,1516.58,599.97,583.92,36.58,0000 0000 0000 0000 000000
2017-03-27 01:50:18,0.22,11.76,0.00,23.73,27.52,31.08,14.25,52.11,998.55,2024.13,1073.60,1331.13,1515.85,599.83,583.91,36.63,0000 0000 0000 0000 000000
2017-03-27 01:55:19,0.23,11.77,0.00,23.73,27.52,31.11,14.29,52.04,998.39,2024.16,1072.56,1330.56,1514.96,599.91,583.90,36.68,0000 0000 0000 0000 000000
2017-03-27 02:00:21,0.20,11.78,0.00,23.59,27.52,31.10,14.31,51.78,998.14,2024.28,1071.53,1329.95,1514.09,599.88,583.88,36.73,0000 0000 0000 0000 000000
2017-03-27 02:05:22,0.23,11.79,0.00,23.42,27.52,31.12,14.28,51.73,998.19,2024.41,1070.67,1329.14,1513.37,600.10,584.47,36.78,0000 0000 0000 0000 000000
2017-03-27 02:10:24,0.19,11.80,0.00,23.26,27.50,31.06,14.32,51.72,998.33,2024.54,1069.72,1328.80,1512.74,599.99,584.73,36.83,0000 0000 0000 0000 000000
2017-03-27 02:15:25,0.27,11.81,0.00,23.09,27.49,31.06,14.38,51.85,998.24,2024.62,1068.76,1327.83,1511.76,600.05,585.18,36.89,0000 0000 0000 0000 000000
2017-03-27 02:20:26,0.28,11.83,0.00,22.96,27.47,31.07,14.43,51.87,998.32,2024.75,1067.37,1327.00,1510.68,600.35,585.67,36.94,0000 0000 0000 0000 000000
2017-03-27 02:25:27,0.25,11.84,0.00,22.83,27.45,31.08,14.39,51.80,998.36,2024.93,1066.17,1326.20,1509.90,600.15,585.78,36.99,0000 0000 0000 0000 000000
2017-03-27 02:30:29,0.16,11.85,0.00,22.71,27.42,31.13,14.36,51.79,998.52,2024.98,1065.19,1325.91,1509.07,600.23,586.13,37.04,0000 0000 0000 0000 000000
2017-03-27 02:35:30,0.24,11.87,0.00,22.60,27.39,31.07,14.39,51.77,998.54,2024.99,1064.13,1325.08,1508.22,599.93,586.19,37.09,0000 0000 0000 0000 000000
2017-03-27 02:40:31,0.18,11.87,0.00,22.55,27.36,30.96,14.49,51.85,998.63,2025.00,1063.18,1324.70,1507.70,600.48,586.86,37.14,0000 0000 0000 0000 000000
2017-03-27 02:45:33,0.18,11.88,0.00,22.66,27.32,30.90,14.40,51.89,998.64,2025.05,1062.29,1324.03,1507.02,599.95,586.09,37.19,0000 0000 0000 0000 000000
2017-03-27 02:50:34,0.21,11.89,0.00,22.71,27.28,30.84,14.43,51.95,998.83,2025.16,1061.50,1323.67,1506.26,600.07,586.14,37.24,0000 0000 0000 0000 000000
2017-03-27 02:55:35,0.27,11.90,0.00,22.70,27.25,30.81,14.43,51.81,999.04,2025.63,1060.51,1323.01,1505.59,600.19,586.48,37.29,0000 0000 0000 0000 000000
2017-03-27 03:00:36,0.20,11.92,0.00,22.77,27.22,30.77,14.41,51.72,999.04,2025.92,1059.74,1322.43,1504.96,599.83,586.00,37.34,0000 0000 0000 0000 000000
2017-03-27 03:05:38,0.19,11.93,0.00,22.86,27.19,30.74,14.41,51.75,999.04,2025.99,1058.72,1321.97,1504.12,600.00,586.02,37.39,0000 0000 0000 0000 000000
2017-03-27 03:10:39,0.21,11.94,0.00,22.88,27.16,30.71,14.41,51.82,999.05,2025.99,1057.83,1321.20,1503.52,600.25,586.27,37.44,0000 0000 0000 0000 000000
2017-03-27 03:15:40,0.12,11.95,0.00,22.92,27.14,30.64,14.36,51.65,999.04,2025.99,1056.98,1320.90,1502.79,599.76,585.58,37.49,0000 0000 0000 0000 000000
2017-03-27 03:20:41,0.21,11.96,0.00,22.99,27.12,30.59,14.34,51.71,999.05,2025.99,1056.23,1320.12,1502.04,600.04,585.80,37.54,0000 0000 0000 0000 000000
2017-03-27 03:25:42,0.17,11.96,0.00,22.99,27.10,30.56,14.33,51.61,999.04,2026.00,1055.41,1319.84,1501.43,599.70,585.48,37.59,0000 0000 0000 0000 000000
2017-03-27 03:30:43,0.18,11.97,0.00,23.04,27.10,30.59,14.36,51.68,999.04,2026.02,1054.55,1319.05,1500.79,599.95,585.66,37.64,0000 0000 0000 0000 000000
2017-03-27 03:35:45,0.19,11.98,0.00,23.11,27.07,30.61,14.37,51.57,999.05,2026.04,1053.70,1318.63,1500.03,599.92,585.44,37.69,0000 0000 0000 0000 000000
2017-03-27 03:40:46,0.16,11.99,0.00,23.14,27.07,30.63,14.44,51.67,999.04,2026.12,1052.86,1318.01,1499.34,600.02,585.48,37.74,0000 0000 0000 0000 000000
2017-03-27 03:45:47,0.22,12.00,0.00,23.20,27.07,30.66,14.37,51.64,999.04,2026.15,1051.93,1317.32,1498.57,599.98,585.31,37.80,0000 0000 0000 0000 000000
2017-03-27 03:50:49,0.13,12.01,0.00,23.26,27.07,30.66,14.30,51.57,999.04,2026.12,1051.02,1316.91,1497.91,599.83,585.09,37.85,0000 0000 0000 0000 000000
2017-03-27 03:55:50,0.24,12.02,0.00,23.28,27.07,30.71,14.29,51.73,998.79,2026.12,1050.10,1316.08,1497.08,599.91,584.98,37.90,0000 0000 0000 0000 000000
2017-03-27 04:00:51,0.22,12.03,0.00,23.34,27.07,30.75,14.35,51.84,998.56,2026.17,1049.18,1315.65,1496.32,599.81,584.49,37.95,0000 0000 0000 0000 000000
2017-03-27 04:05:52,0.17,12.04,0.00,23.40,27.10,30.77,14.29,51.88,998.55,2026.12,1048.34,1314.99,1495.68,599.94,584.59,38.00,0000 0000 0000 0000 000000
2017-03-27 04:10:53,0.22,12.06,0.00,23.43,27.10,30.79,14.38,51.96,998.55,2026.07,1047.21,1314.22,1494.78,600.13,584.75,38.05,0000 0000 0000 0000 000000
2017-03-27 04:15:54,0.22,12.07,0.00,23.47,27.12,30.81,14.26,51.84,998.51,2026.03,1046.19,1313.58,1493.93,600.15,584.62,38.10,0000 0000 0000 0000 000000
2017-03-27 04:20:56,0.17,12.08,0.00,23.51,27.14,30.87,14.33,51.89,998.54,2026.02,1045.37,1313.02,1493.09,600.05,584.41,38.15,0000 0000 0000 0000 000000
2017-03-27 04:25:57,0.22,12.08,0.00,23.51,27.16,30.89,14.30,51.98,998.55,2026.01,1044.58,1312.43,1492.44,599.94,584.37,38.20,0000 0000 0000 0000 000000
2017-03-27 04:30:58,0.10,12.09,0.00,23.58,27.18,30.88,14.32,51.95,998.52,2026.00,1043.83,1311.90,1491.75,600.01,584.37,38.25,0000 0000 0000 0000 000000
2017-03-27 04:35:59,0.24,12.10,0.00,23.61,27.20,30.89,14.35,51.91,998.46,2026.00,1042.83,1311.09,1490.93,600.01,584.20,38.30,0000 0000 0000 0000 000000
2017-03-27 04:41:01,0.18,12.11,0.00,23.65,27.22,30.94,14.34,51.92,998.47,2026.00,1042.09,1310.61,1490.13,599.92,584.07,38.35,0000 0000 0000 0000 000000
2017-03-27 04:46:02,0.17,12.12,0.00,23.69,27.25,30.97,14.29,51.90,998.41,2025.98,1041.32,1310.01,1489.46,600.14,584.15,38.40,0000 0000 0000 0000 000000
2017-03-27 04:51:03,0.21,12.13,0.00,23.72,27.28,30.97,14.27,51.90,998.49,2025.99,1040.47,1309.31,1488.77,599.83,583.81,38.45,0000 0000 0000 0000 000000
2017-03-27 04:56:05,0.17,12.14,0.00,23.74,27.31,31.03,14.23,51.76,998.54,2025.90,1039.43,1308.79,1488.00,599.85,583.72,38.50,0000 0000 0000 0000 000000
2017-03-27 05:01:06,0.18,12.15,0.00,23.77,27.33,31.05,14.32,51.82,998.55,2025.79,1038.54,1308.04,1487.16,600.15,584.08,38.55,0000 0000 0000 0000 000000
2017-03-27 05:06:07,0.08,12.16,0.00,23.80,27.36,31.07,14.24,51.83,998.55,2025.30,1037.88,1307.54,1486.46,599.84,583.63,38.60,0000 0000 0000 0000 000000
2017-03-27 05:11:08,0.12,12.16,0.00,23.83,27.39,31.10,14.24,51.84,998.55,2025.06,1037.05,1306.96,1485.81,599.97,583.69,38.66,0000 0000 0000 0000 000000
2017-03-27 05:16:10,0.22,12.18,0.00,23.87,27.42,31.12,14.34,51.89,998.55,2025.00,1036.16,1306.19,1485.03,599.91,583.69,38.71,0000 0000 0000 0000 000000
2017-03-27 05:21:11,0.19,12.18,0.00,23.91,27.46,31.15,14.28,51.88,998.55,2025.00,1035.40,1305.77,1484.28,600.08,583.70,38.76,0000 0000 0000 0000 000000
2017-03-27 05:26:12,0.18,12.19,0.00,23.92,27.48,31.17,14.22,51.75,998.55,2025.00,1034.55,1305.03,1483.62,599.67,583.33,38.81,0000 0000 0000 0000 000000
2017-03-27 05:31:13,0.16,12.20,0.00,23.95,27.51,31.20,14.29,51.89,998.55,2024.98,1033.80,1304.51,1482.94,599.80,583.41,38.86,0000 0000 0000 0000 000000
2017-03-27 05:36:15,0.14,12.21,0.00,24.14,27.55,31.22,14.26,51.93,998.57,2024.95,1033.02,1303.99,1482.11,600.16,583.27,38.91,0000 0000 0000 0000 000000
2017-03-27 05:41:16,0.19,12.22,0.00,24.51,27.58,31.21,14.26,51.88,998.57,2024.66,1032.21,1303.23,1481.42,599.56,582.02,38.96,0000 0000 0000 0000 000000
2017-03-27 05:46:17,0.11,12.22,0.00,24.25,27.62,31.21,14.23,51.92,998.57,2024.16,1031.34,1302.72,1480.72,599.78,582.76,39.01,0000 0000 0000 0000 000000
2017-03-27 05:51:19,0.17,12.23,0.00,24.39,27.65,31.27,14.24,51.94,998.57,2024.02,1030.43,1302.02,1479.98,600.05,582.71,39.06,0000 0000 0000 0000 000000
2017-03-27 05:56:20,0.23,12.24,0.00,24.33,27.68,31.33,14.22,51.88,998.56,2024.00,1029.55,1301.43,1479.16,599.84,582.58,39.11,0000 0000 0000 0000 000000
2017-03-27 06:01:21,0.19,12.25,0.00,24.24,27.70,31.38,14.23,51.86,998.57,2024.00,1028.50,1300.90,1478.38,599.29,582.31,39.16,0000 0000 0000 0000 000000
2017-03-27 06:06:22,0.21,12.26,0.00,24.22,27.71,31.32,14.30,51.88,998.56,2024.00,1027.56,1300.09,1477.70,600.26,583.30,39.21,0000 0000 0000 0000 000000
2017-03-27 06:11:24,0.18,12.27,0.00,24.19,27.72,31.28,14.22,51.63,998.56,2024.00,1026.65,1299.64,1476.98,599.91,583.00,39.26,0000 0000 0000 0000 000000
2017-03-27 06:16:25,0.15,12.28,0.00,24.18,27.72,31.23,14.25,51.76,998.56,2024.00,1025.90,1299.01,1476.19,599.89,582.96,39.31,0000 0000 0000 0000 000000
2017-03-27 06:21:26,0.21,12.29,0.00,24.18,27.72,31.25,14.23,51.79,998.57,2024.00,1025.06,1298.41,1475.48,599.93,583.13,39.36,0000 0000 0000 0000 000000
2017-03-27 06:26:28,0.15,12.30,0.00,24.20,27.72,31.25,14.25,51.82,998.69,2023.99,1024.18,1297.93,1474.83,600.03,583.18,39.41,0000 0000 0000 0000 000000
2017-03-27 06:31:29,0.23,12.32,0.00,24.20,27.72,31.24,14.35,51.73,998.84,2023.97,1023.17,1297.12,1474.04,600.14,583.37,39.46,0000 0000 0000 0000 000000
2017-03-27 06:36:30,0.15,12.32,0.00,24.21,27.73,31.31,14.34,51.74,999.02,2023.95,1022.58,1296.84,1473.31,599.97,583.40,39.51,0000 0000 0000 0000 000000
2017-03-27 06:41:31,0.11,12.33,0.00,24.37,27.75,31.31,14.32,51.70,999.04,2023.93,1022.00,1296.07,1472.88,600.26,583.31,39.56,0000 0000 0000 0000 000000
2017-03-27 06:46:33,0.16,12.34,0.00,24.72,27.76,31.22,14.32,51.58,999.11,2023.79,1021.26,1295.70,1472.09,600.19,582.51,39.62,0000 0000 0000 0000 000000
2017-03-27 06:51:34,0.13,12.34,0.00,24.40,27.77,31.23,14.33,51.60,999.48,2023.36,1020.33,1295.02,1471.40,600.12,583.34,39.67,0000 0000 0000 0000 000000
2017-03-27 06:56:35,0.19,12.35,0.00,24.43,27.80,31.29,14.28,51.58,999.53,2023.14,1019.30,1294.34,1470.87,600.15,583.35,39.72,0000 0000 0000 0000 000000
2017-03-27 07:01:37,0.16,12.36,0.00,24.59,27.81,31.36,14.22,51.36,999.53,2023.08,1018.32,1293.95,1470.06,599.98,582.88,39.77,0000 0000 0000 0000 000000
2017-03-27 07:06:38,0.25,12.37,0.00,24.53,27.82,31.36,14.22,51.24,999.53,2023.06,1017.26,1293.14,1469.20,600.14,582.98,39.82,0000 0000 0000 0000 000000
2017-03-27 07:11:39,0.05,12.38,0.00,24.53,27.82,31.32,14.20,51.30,999.53,2023.05,1016.95,1292.92,1468.83,599.72,582.76,39.87,0000 0000 0000 0000 000000
2017-03-27 07:16:40,0.22,12.39,0.00,24.56,27.84,31.27,14.21,51.23,999.54,2023.02,1016.12,1292.10,1468.07,599.70,582.72,39.92,0000 0000 0000 0000 000000
2017-03-27 07:21:42,0.17,12.39,0.00,24.72,27.85,31.27,14.23,51.21,999.53,2023.01,1015.47,1291.76,1467.51,599.76,582.53,39.97,0000 0000 0000 0000 000000
2017-03-27 07:26:43,0.18,12.41,0.00,24.95,27.86,31.15,14.20,51.17,999.53,2023.00,1014.59,1291.04,1466.81,600.29,582.40,40.02,0000 0000 0000 0000 000000
2017-03-27 07:31:44,0.19,12.42,0.00,24.59,27.87,31.09,14.22,51.31,999.53,2023.00,1013.78,1290.54,1466.04,600.18,583.04,40.07,0000 0000 0000 0000 000000
2017-03-27 07:36:45,0.18,12.43,0.00,24.45,27.87,31.24,14.23,51.34,999.53,2022.99,1012.82,1289.97,1465.23,599.88,583.07,40.12,0000 0000 0000 0000 000000
2017-03-27 07:41:47,0.19,12.44,0.00,24.73,27.87,31.31,14.24,51.23,999.53,2022.99,1012.02,1289.25,1464.75,600.41,582.97,40.17,0000 0000 0000 0000 000000
2017-03-27 07:46:48,0.15,12.44,0.00,24.86,27.88,31.31,14.14,51.18,999.53,2022.99,1011.26,1288.91,1464.02,599.73,582.12,40.22,0000 0000 0000 0000 000000
2017-03-27 07:51:49,0.24,12.45,0.00,24.95,27.89,31.27,14.16,51.21,999.53,2022.98,1010.47,1288.14,1463.35,600.18,582.34,40.27,0000 0000 0000 0000 000000
2017-03-27 07:56:51,0.17,12.46,0.00,25.02,27.90,31.09,14.26,51.16,999.54,2022.98,1009.59,1287.78,1462.68,600.02,581.98,40.32,0000 0000 0000 0000 000000
2017-03-27 08:01:52,0.18,12.47,0.00,24.67,27.88,31.02,14.22,51.36,999.56,2022.97,1008.70,1287.04,1461.97,600.04,582.78,40.37,0000 0000 0000 0000 000000
2017-03-27 08:06:53,0.17,12.48,0.00,24.62,27.87,31.02,14.24,51.27,999.59,2022.97,1007.97,1286.62,1461.17,600.02,582.90,40.42,0000 0000 0000 0000 000000
2017-03-27 08:11:55,0.16,12.49,0.00,24.86,27.87,31.13,14.24,51.24,999.70,2022.97,1007.15,1286.02,1460.79,599.72,582.31,40.48,0000 0000 0000 0000 000000
2017-03-27 08:16:56,0.20,12.50,0.00,25.00,27.87,31.15,14.21,51.20,999.89,2022.98,1006.40,1285.60,1460.03,600.14,582.41,40.53,0000 0000 0000 0000 000000
2017-03-27 08:21:57,0.17,12.51,0.00,25.06,27.85,30.98,14.18,51.13,1000.00,2022.97,1005.59,1285.01,1459.38,600.17,582.43,40.58,0000 0000 0000 0000 000000
2017-03-27 08:26:58,0.18,12.52,0.00,24.77,27.85,30.91,14.23,51.24,1000.01,2022.98,1004.74,1284.56,1458.85,600.30,583.01,40.63,0000 0000 0000 0000 000000
2017-03-27 08:32:00,0.15,12.53,0.00,24.86,27.83,30.92,14.20,51.34,1000.01,2022.98,1003.90,1283.99,1458.06,599.78,582.49,40.68,0000 0000 0000 0000 000000
2017-03-27 08:37:01,0.21,12.54,0.00,25.02,27.82,30.94,14.24,51.43,1000.01,2022.98,1003.09,1283.41,1457.52,600.00,582.26,40.73,0000 0000 0000 0000 000000
2017-03-27 08:42:02,0.14,12.55,0.00,25.08,27.82,30.91,14.19,51.37,1000.01,2022.98,1002.37,1283.00,1456.95,600.05,582.25,40.78,0000 0000 0000 0000 000000
2017-03-27 08:47:04,0.24,12.56,0.00,25.00,27.80,30.85,14.17,51.36,1000.01,2022.96,1001.42,1282.31,1456.10,600.10,582.45,40.83,0000 0000 0000 0000 000000
2017-03-27 08:52:05,0.15,12.56,0.00,24.97,27.80,30.82,14.23,51.33,1000.03,2022.98,1000.59,1281.98,1455.57,600.24,582.62,40.88,0000 0000 0000 0000 000000
2017-03-27 08:57:06,0.17,12.58,0.00,25.08,27.80,30.83,14.14,51.23,1000.04,2022.99,999.83,1281.23,1454.94,599.76,582.18,40.93,0000 0000 0000 0000 000000
2017-03-27 09:02:08,0.16,12.59,0.00,25.04,27.77,30.81,14.22,51.25,1000.03,2022.99,998.95,1280.88,1454.11,600.01,582.26,40.98,0000 0000 0000 0000 000000
2017-03-27 09:07:09,0.23,12.60,0.00,25.07,27.77,30.80,14.21,51.11,1000.05,2022.98,998.06,1280.09,1453.58,599.86,581.99,41.03,0000 0000 0000 0000 000000
2017-03-27 09:12:11,0.15,12.60,0.00,25.10,27.76,30.77,14.18,51.19,1000.09,2022.99,997.22,1279.86,1452.98,600.22,582.35,41.08,0000 0000 0000 0000 000000
2017-03-27 09:17:12,0.23,12.62,0.00,25.02,27.75,30.76,14.10,51.08,1000.18,2022.99,996.43,1279.07,1452.19,600.00,582.37,41.13,0000 0000 0000 0000 000000
2017-03-27 09:22:13,0.13,12.62,0.00,25.00,27.73,30.74,14.17,51.01,1000.34,2022.99,995.63,1278.91,1451.72,599.94,582.39,41.18,0000 0000 0000 0000 000000
2017-03-27 09:27:15,0.15,12.63,0.00,25.07,27.72,30.74,14.18,51.17,1000.44,2022.99,994.90,1278.12,1451.03,600.27,582.60,41.23,0000 0000 0000 0000 000000
2017-03-27 09:32:16,0.16,12.64,0.00,25.09,27.71,30.72,14.18,51.14,1000.39,2022.99,994.05,1277.93,1450.37,600.19,582.52,41.28,0000 0000 0000 0000 000000
2017-03-27 09:37:17,0.22,12.65,0.00,24.99,27.70,30.71,14.14,51.22,1000.45,2023.00,993.22,1277.14,1449.88,600.16,582.79,41.34,0000 0000 0000 0000 000000
2017-03-27 09:42:19,0.17,12.66,0.00,24.89,27.68,30.68,14.26,51.23,1000.44,2023.00,992.41,1276.87,1449.07,599.94,582.80,41.39,0000 0000 0000 0000 000000
2017-03-27 09:47:20,0.17,12.67,0.00,25.01,27.67,30.70,14.11,51.25,1000.43,2023.00,991.79,1276.08,1448.55,599.83,582.46,41.44,0000 0000 0000 0000 000000
2017-03-27 09:52:21,0.15,12.68,0.00,25.04,27.65,30.65,14.15,51.28,1000.47,2023.01,990.82,1275.89,1447.98,600.10,582.67,41.49,0000 0000 0000 0000 000000
2017-03-27 09:57:22,0.22,12.69,0.00,25.02,27.64,30.64,14.18,51.37,1000.49,2023.02,989.97,1275.10,1447.21,599.79,582.46,41.54,0000 0000 0000 0000 000000
2017-03-27 10:02:24,0.16,12.70,0.00,25.07,27.62,30.63,14.14,51.23,1000.47,2023.03,989.10,1274.87,1446.73,600.09,582.69,41.59,0000 0000 0000 0000 000000
2017-03-27 10:07:25,0.25,12.71,0.00,25.06,27.62,30.64,14.28,51.27,1000.49,2023.12,988.25,1274.08,1446.02,600.24,582.66,41.64,0000 0000 0000 0000 000000
2017-03-27 10:12:26,0.18,12.71,0.00,25.05,27.61,30.62,14.09,51.13,1000.51,2023.22,987.50,1273.87,1445.44,599.79,582.37,41.69,0000 0000 0000 0000 000000
2017-03-27 10:17:28,0.22,12.73,0.00,24.93,27.60,30.60,14.25,51.19,1000.52,2023.46,986.75,1273.10,1444.95,599.97,582.83,41.74,0000 0000 0000 0000 000000
2017-03-27 10:22:29,0.17,12.74,0.00,24.89,27.58,30.59,14.16,51.13,1000.59,2023.47,985.81,1272.87,1444.12,600.06,582.95,41.79,0000 0000 0000 0000 000000
2017-03-27 10:27:30,0.27,12.75,0.00,25.01,27.57,30.58,14.11,51.06,1000.65,2023.87,984.93,1272.12,1443.60,600.06,582.75,41.84,0000 0000 0000 0000 000000
2017-03-27 10:32:32,0.15,12.76,0.00,25.04,27.56,30.58,14.17,51.16,1000.71,2023.95,984.06,1271.93,1443.01,599.85,582.58,41.89,0000 0000 0000 0000 000000
2017-03-27 10:37:33,0.25,12.77,0.00,24.96,27.55,30.56,14.15,51.17,1000.90,2023.96,983.29,1271.19,1442.33,599.98,582.93,41.94,0000 0000 0000 0000 000000
2017-03-27 10:42:34,0.12,12.78,0.00,25.00,27.53,30.56,14.09,51.11,1000.99,2023.98,982.58,1270.96,1441.95,599.92,582.78,41.99,0000 0000 0000 0000 000000
2017-03-27 10:47:36,0.21,12.79,0.00,25.06,27.52,30.56,14.15,51.16,1000.99,2023.99,981.79,1270.22,1441.14,599.80,582.60,42.04,0000 0000 0000 0000 000000
2017-03-27 10:52:37,0.11,12.80,0.00,25.05,27.51,30.55,14.19,51.16,1001.00,2023.99,981.00,1269.98,1440.75,600.05,582.89,42.09,0000 0000 0000 0000 000000
2017-03-27 10:57:38,0.23,12.81,0.00,25.05,27.50,30.55,14.19,51.15,1001.01,2023.99,980.14,1269.24,1440.03,599.90,582.77,42.14,0000 0000 0000 0000 000000
2017-03-27 11:02:40,0.16,12.81,0.00,24.92,27.50,30.53,14.18,51.15,1001.04,2023.99,979.40,1268.98,1439.49,599.93,583.08,42.19,0000 0000 0000 0000 000000
2017-03-27 11:07:41,0.17,12.82,0.00,24.93,27.48,30.51,14.16,51.11,1001.23,2023.99,978.70,1268.33,1438.96,599.85,583.03,42.25,0000 0000 0000 0000 000000
2017-03-27 11:12:42,0.12,12.83,0.00,25.03,27.47,30.53,14.11,51.07,1001.41,2023.99,977.98,1268.00,1438.16,599.76,582.87,42.30,0000 0000 0000 0000 000000
2017-03-27 11:17:43,0.20,12.84,0.00,25.01,27.47,30.52,14.12,51.03,1001.34,2024.00,977.15,1267.54,1437.80,599.96,583.16,42.35,0000 0000 0000 0000 000000
2017-03-27 11:22:45,0.16,12.85,0.00,24.98,27.45,30.52,14.27,51.02,1001.44,2024.00,976.50,1267.01,1437.07,600.30,583.58,42.40,0000 0000 0000 0000 000000
2017-03-27 11:27:46,0.14,12.86,0.00,25.03,27.45,30.49,14.12,51.01,1001.47,2024.00,975.89,1266.61,1436.62,599.90,583.06,42.45,0000 0000 0000 0000 000000
2017-03-27 11:32:47,0.16,12.87,0.00,24.99,27.43,30.50,14.29,51.15,1001.47,2024.01,975.06,1266.01,1436.02,599.80,583.08,42.50,0000 0000 0000 0000 000000
2017-03-27 11:37:49,0.18,12.87,0.00,24.85,27.42,30.48,14.33,51.04,1001.48,2024.02,974.24,1265.86,1435.50,600.29,583.81,42.55,0000 0000 0000 0000 000000
2017-03-27 11:42:50,0.20,12.88,0.00,24.97,27.41,30.50,14.29,51.08,1001.48,2024.06,973.54,1265.10,1434.99,600.11,583.42,42.60,0000 0000 0000 0000 000000
2017-03-27 11:47:52,0.11,12.89,0.00,25.03,27.40,30.50,14.21,51.01,1001.48,2024.09,972.86,1264.96,1434.30,600.08,583.19,42.65,0000 0000 0000 0000 000000
2017-03-27 11:52:53,0.21,12.90,0.00,24.89,27.40,30.47,14.21,51.02,1001.48,2024.13,972.05,1264.21,1433.94,599.95,583.39,42.70,0000 0000 0000 0000 000000
2017-03-27 11:57:54,0.19,12.91,0.00,24.90,27.38,30.46,14.18,51.02,1001.56,2024.31,971.40,1264.00,1433.16,599.80,583.23,42.75,0000 0000 0000 0000 000000
2017-03-27 12:02:56,0.19,12.92,0.00,25.02,27.37,30.47,14.16,51.00,1001.76,2024.40,970.68,1263.59,1432.84,599.92,583.16,42.80,0000 0000 0000 0000 000000
2017-03-27 12:07:57,0.18,12.93,0.00,25.00,27.37,30.46,14.15,51.00,1001.67,2024.67,970.00,1263.02,1432.06,600.05,583.40,42.85,0000 0000 0000 0000 000000
2017-03-27 12:12:58,0.16,12.94,0.00,24.86,27.35,30.44,14.18,51.10,1001.70,2024.88,969.22,1262.86,1431.95,599.75,583.39,42.90,0000 0000 0000 0000 000000
2017-03-27 12:17:59,0.15,12.95,0.00,24.98,27.35,30.46,14.19,51.21,1001.66,2024.94,968.92,1262.08,1431.16,599.81,583.15,42.95,0000 0000 0000 0000 000000
2017-03-27 12:23:01,0.21,12.95,0.00,25.05,27.35,30.46,14.18,51.21,1001.67,2024.92,968.06,1261.65,1430.54,600.06,583.21,43.00,0000 0000 0000 0000 000000
2017-03-27 12:28:02,0.23,12.97,0.00,24.86,27.34,30.42,14.28,51.20,1001.59,2024.93,967.06,1260.93,1429.57,600.19,583.74,43.05,0000 0000 0000 0000 000000
2017-03-27 12:33:03,0.29,12.98,0.00,24.81,27.32,30.41,14.32,51.19,1001.57,2024.93,965.96,1260.08,1428.62,600.20,583.88,43.11,0000 0000 0000 0000 000000
2017-03-27 12:38:04,0.28,13.00,0.00,24.97,27.32,30.42,14.24,51.12,1001.73,2024.97,964.90,1259.17,1427.70,600.13,583.63,43.16,0000 0000 0000 0000 000000
2017-03-27 12:43:05,0.26,13.01,0.00,25.07,27.32,30.43,14.16,51.15,1001.97,2024.96,963.88,1258.53,1426.77,600.03,583.39,43.21,0000 0000 0000 0000 000000
2017-03-27 12:48:07,0.34,13.02,0.00,24.97,27.31,30.44,14.24,51.23,1002.20,2024.98,962.64,1257.61,1425.73,599.73,583.47,43.26,0000 0000 0000 0000 000000
2017-03-27 12:53:08,0.28,13.04,0.00,24.80,27.30,30.39,14.20,51.24,1002.45,2024.97,961.42,1256.71,1424.63,600.07,584.25,43.31,0000 0000 0000 0000 000000
2017-03-27 12:58:09,0.26,13.05,0.00,24.91,27.30,30.40,14.27,51.15,1002.42,2024.98,960.33,1255.86,1423.66,600.03,583.98,43.36,0000 0000 0000 0000 000000